Home > Weather > Stockerau > Past weeks

Flag for Austria Past Weather in Stockerau, Lower Austria, Austria — Yesterday and Last 2 Weeks

Now
88 °F

Passing clouds.


Feels Like: 87 °F
Forecast: 63 / 87 °F
Wind: 15 mph from Southwest

Location: Tulln Airport

Current Time: Jul 30, 2016 at 3:17:20 PM

Latest Report: Jul 30, 2016 at 1:50 PM


Visibility: 43 mi

Pressure: 29.95 "Hg

Humidity: 35%

Dew Point: 57 °F

Location of StockerauLocation

Past Weather in Stockerau — Graph

°F

Stockerau Temperature Yesterday

Maximum temperature yesterday: 84 °F (at 3:50 PM)
Minimum temperature yesterday: 63 °F (at 5:50 AM)
Average temperature yesterday: 75 °F

High & Low Weather Summary for the Past Weeks

 TemperatureHumidityPressure
High88 °F (Jul 30, 1:50 PM)100% (Jul 17, 5:50 AM)30.21 "Hg (Jul 17, 5:50 AM)
Low55 °F (Jul 17, 5:50 AM)35% (Jul 30, 1:50 PM)29.92 "Hg (Jul 27, 4:50 PM)
Average74 °F67%30.04 "Hg
* Reported Jul 15 1:20 PM — Jul 30 1:50 PM, Stockerau, Weather by CustomWeather, © 2016

Note: Actual official high and low records may vary slightly from our data, if they occured in-between our weather recording intervals... More about our weather records

Advertising

Stockerau Weather History for the Previous 24 Hours

Scroll right to see more
 ConditionsComfort  
Time TempWeatherWind HumidityBarometerVisibility
1:50 PM
Sat, Jul 30
88 °FPassing clouds.15 mph35%29.95 "Hg43 mi
11:50 AM86 °FPassing clouds.9 mph46%29.98 "Hg43 mi
10:50 AM81 °FPassing clouds.7 mph54%29.98 "Hg43 mi
9:50 AM79 °FPassing clouds.3 mph58%29.98 "Hg43 mi
8:50 AM72 °FPassing clouds.2 mph73%29.98 "Hg43 mi
7:50 AM66 °FPassing clouds.1 mph83%30.01 "Hg37 mi
6:50 AM63 °FPassing clouds.3 mph88%29.98 "Hg37 mi
5:50 AM61 °FPassing clouds.2 mph94%29.98 "Hg37 mi
10:50 PM
Fri, Jul 29
70 °FPassing clouds.1 mph73%29.98 "Hg19 mi
9:50 PM72 °FPassing clouds.5 mph69%29.98 "Hg19 mi
8:50 PM75 °FPassing clouds.5 mph61%29.95 "Hg22 mi
7:50 PM77 °FPassing clouds.10 mph57%29.95 "Hg31 mi
6:50 PM81 °FScattered clouds.13 mph48%29.92 "Hg37 mi
5:50 PM81 °FScattered clouds.15 mph48%29.95 "Hg37 mi
4:50 PM82 °FPassing clouds.17 mph45%29.92 "Hg37 mi
3:50 PM84 °FPartly sunny.21 mph45%29.95 "Hg37 mi
Weather by CustomWeather, © 2016

See weather overviewHow to use our weather pages